TGL17MP OEJN-KMIA

Flight info

Callsign TGL17MP
Flight time N/A
Altitude 34000
Route MIGDA L677 CVO L617 NABSI M872 METRU UL81 LORNO/N0488F360 DCT AMREX DCT EKPAR DCT GIROV DCT NAXES DCT VEXUV DCT IDENU DCT OST DCT SOSIV DCT SOVAN/N0400F180 L995 MISPO/N0482F360 DCT PEPAG DCT TUNNO DCT KOTUN DCT AMAXA DCT VESAN DCT SOVAT L613 SANDY DCT OKSAW DCT TEWXI DCT LIPGO/N0484F380 DCT PIKIL/M085F390 DCT 57N020W 57N030W 57N040W 56N050W DCT JANJO/N0492F400 N712B QUBIS DCT BEEKN Q97 KALDA Q161 KOOKI DCT SKARP Y313 HOAGG BNFSH3
Aircraft A359/H-SDE2E3GHIJ3J4J5LM1ORWXY/LB1D1

Departure

Time N/A
Airport King Abdulaziz International Airport (OEJN)

Arrival

Time 2026-05-05 14:55
Airport Miami International Airport (KMIA)
Time Latitude Longitude Altitude Speed Heading
2026-05-05 13:56 31.56325 -78.25774 42146 ft 492 kts 202°
2026-05-05 13:56 31.49722 -78.27867 42140 ft 491 kts 202°
2026-05-05 13:57 31.43138 -78.29980 42149 ft 490 kts 203°
2026-05-05 13:57 31.36598 -78.32182 42146 ft 489 kts 203°
2026-05-05 13:58 31.30058 -78.34395 42146 ft 489 kts 203°
2026-05-05 13:58 31.23515 -78.36591 42141 ft 489 kts 203°
2026-05-05 13:59 31.13699 -78.39865 42143 ft 489 kts 203°
2026-05-05 14:00 31.04945 -78.42777 42146 ft 489 kts 203°
2026-05-05 14:00 30.97330 -78.45307 42140 ft 490 kts 203°
2026-05-05 14:01 30.90775 -78.47482 42140 ft 490 kts 203°
2026-05-05 14:01 30.84218 -78.49654 42145 ft 490 kts 203°
2026-05-05 14:02 30.77659 -78.51823 42141 ft 490 kts 203°
2026-05-05 14:02 30.71099 -78.53989 42134 ft 490 kts 204°
2026-05-05 14:03 30.64532 -78.56156 42140 ft 491 kts 204°
2026-05-05 14:03 30.57959 -78.58321 42140 ft 491 kts 204°
2026-05-05 14:04 30.51383 -78.60484 42141 ft 491 kts 204°
2026-05-05 14:04 30.44809 -78.62643 42108 ft 491 kts 204°
2026-05-05 14:05 30.38226 -78.64802 42140 ft 492 kts 204°
2026-05-05 14:05 30.31631 -78.66963 42141 ft 492 kts 204°
2026-05-05 14:06 30.26151 -78.68754 42131 ft 493 kts 205°
2026-05-05 14:06 30.19536 -78.70917 42135 ft 495 kts 205°
2026-05-05 14:07 30.16218 -78.72004 42032 ft 496 kts 205°
2026-05-05 14:07 30.12899 -78.73083 41444 ft 496 kts 205°
2026-05-05 14:07 30.09585 -78.74161 40801 ft 495 kts 205°
2026-05-05 14:07 30.06275 -78.75236 40330 ft 494 kts 205°
2026-05-05 14:08 30.02959 -78.76316 40153 ft 497 kts 205°
2026-05-05 14:08 29.99618 -78.77405 40129 ft 500 kts 205°
2026-05-05 14:08 29.92906 -78.79584 40132 ft 501 kts 205°
2026-05-05 14:09 29.86191 -78.81760 40129 ft 501 kts 206°
2026-05-05 14:09 29.79470 -78.83902 40127 ft 504 kts 203°
2026-05-05 14:10 29.72432 -78.85119 40129 ft 515 kts 196°
2026-05-05 14:10 29.65309 -78.86060 40129 ft 515 kts 196°
2026-05-05 14:11 29.58195 -78.87008 40129 ft 514 kts 196°
2026-05-05 14:11 29.51098 -78.87960 40129 ft 513 kts 196°
2026-05-05 14:12 29.44010 -78.88913 40132 ft 513 kts 196°
2026-05-05 14:12 29.36918 -78.89865 40130 ft 513 kts 196°
2026-05-05 14:13 29.29837 -78.90813 40121 ft 512 kts 196°
2026-05-05 14:13 29.22773 -78.91758 40117 ft 511 kts 197°
2026-05-05 14:14 29.15712 -78.92703 40121 ft 511 kts 197°
2026-05-05 14:14 29.08647 -78.93647 40118 ft 511 kts 196°
2026-05-05 14:15 29.05115 -78.94118 39871 ft 511 kts 197°
2026-05-05 14:15 29.01581 -78.94588 39630 ft 512 kts 197°
2026-05-05 14:15 28.98042 -78.95061 39395 ft 513 kts 197°
2026-05-05 14:15 28.94493 -78.95534 39158 ft 514 kts 197°
2026-05-05 14:16 28.90934 -78.96008 38927 ft 516 kts 197°
2026-05-05 14:16 28.87365 -78.96482 38681 ft 517 kts 197°
2026-05-05 14:16 28.83792 -78.96957 38404 ft 518 kts 197°
2026-05-05 14:16 28.80211 -78.97432 38131 ft 518 kts 197°
2026-05-05 14:17 28.76624 -78.97908 37806 ft 519 kts 197°
2026-05-05 14:17 28.73038 -78.98383 37545 ft 520 kts 196°
2026-05-05 14:17 28.69440 -78.98860 37273 ft 520 kts 196°
2026-05-05 14:17 28.65845 -78.99336 37012 ft 521 kts 196°
2026-05-05 14:18 28.62242 -78.99812 36766 ft 522 kts 196°
2026-05-05 14:18 28.58634 -79.00289 36507 ft 522 kts 196°
2026-05-05 14:18 28.55024 -79.00766 36254 ft 523 kts 196°
2026-05-05 14:18 28.51407 -79.01243 36003 ft 523 kts 195°
2026-05-05 14:19 28.47792 -79.01719 35714 ft 523 kts 195°
2026-05-05 14:19 28.44187 -79.02193 35469 ft 521 kts 195°
2026-05-05 14:19 28.40593 -79.02665 35226 ft 519 kts 195°
2026-05-05 14:19 28.37013 -79.03139 34994 ft 516 kts 195°
2026-05-05 14:20 28.33516 -79.03857 34757 ft 504 kts 204°
2026-05-05 14:20 28.30191 -79.04988 34530 ft 497 kts 207°
2026-05-05 14:20 28.26914 -79.06213 34279 ft 495 kts 208°
2026-05-05 14:20 28.23641 -79.07449 34051 ft 496 kts 208°
2026-05-05 14:21 28.20366 -79.08679 33718 ft 495 kts 207°
2026-05-05 14:21 28.17113 -79.09893 33457 ft 490 kts 207°
2026-05-05 14:21 28.13885 -79.11097 33200 ft 487 kts 207°
2026-05-05 14:21 28.10676 -79.12292 32945 ft 484 kts 207°
2026-05-05 14:22 28.07483 -79.13481 32691 ft 482 kts 207°
2026-05-05 14:22 28.04303 -79.14664 32437 ft 480 kts 207°
2026-05-05 14:22 28.01181 -79.15825 32196 ft 478 kts 207°
2026-05-05 14:22 27.97988 -79.17011 31939 ft 475 kts 207°
2026-05-05 14:23 27.94850 -79.18176 31693 ft 473 kts 207°
2026-05-05 14:23 27.91730 -79.19333 31423 ft 471 kts 206°
2026-05-05 14:23 27.88630 -79.20482 31180 ft 468 kts 206°
2026-05-05 14:23 27.85548 -79.21624 30940 ft 465 kts 206°
2026-05-05 14:24 27.82476 -79.22762 30703 ft 463 kts 206°
2026-05-05 14:24 27.79418 -79.23894 30473 ft 462 kts 206°
2026-05-05 14:24 27.76368 -79.25022 30240 ft 460 kts 206°
2026-05-05 14:24 27.73336 -79.26143 29970 ft 458 kts 206°
2026-05-05 14:25 27.70350 -79.27246 29713 ft 456 kts 206°
2026-05-05 14:25 27.67340 -79.28357 29451 ft 454 kts 206°
2026-05-05 14:25 27.64346 -79.29462 29140 ft 452 kts 206°
2026-05-05 14:25 27.61366 -79.30560 28877 ft 449 kts 206°
2026-05-05 14:26 27.58409 -79.31649 28614 ft 446 kts 206°
2026-05-05 14:26 27.55465 -79.32734 28356 ft 444 kts 206°
2026-05-05 14:26 27.52534 -79.33813 28105 ft 442 kts 206°
2026-05-05 14:26 27.49616 -79.34887 27849 ft 440 kts 206°
2026-05-05 14:27 27.46704 -79.35957 27599 ft 439 kts 206°
2026-05-05 14:27 27.43808 -79.37022 27347 ft 437 kts 206°
2026-05-05 14:27 27.40923 -79.38082 27100 ft 435 kts 206°
2026-05-05 14:27 27.38049 -79.39137 26856 ft 434 kts 206°
2026-05-05 14:28 27.35186 -79.40188 26609 ft 432 kts 206°
2026-05-05 14:28 27.32336 -79.41233 26374 ft 430 kts 206°
2026-05-05 14:28 27.29495 -79.42276 26136 ft 428 kts 206°
2026-05-05 14:28 27.26666 -79.43315 25897 ft 427 kts 206°
2026-05-05 14:29 27.23841 -79.44348 25656 ft 427 kts 206°
2026-05-05 14:29 27.21020 -79.45379 25427 ft 425 kts 206°
2026-05-05 14:29 27.18212 -79.46405 25192 ft 424 kts 206°
2026-05-05 14:29 27.15412 -79.47428 24963 ft 422 kts 206°
2026-05-05 14:30 27.12622 -79.48446 24725 ft 421 kts 206°
2026-05-05 14:30 27.09840 -79.49462 24518 ft 420 kts 206°
2026-05-05 14:30 27.07070 -79.50473 24262 ft 418 kts 206°
2026-05-05 14:30 27.04306 -79.51483 24081 ft 418 kts 206°
2026-05-05 14:31 27.01551 -79.52491 23865 ft 416 kts 206°
2026-05-05 14:31 26.98799 -79.53492 23643 ft 415 kts 206°
2026-05-05 14:31 26.96056 -79.54490 23375 ft 414 kts 206°
2026-05-05 14:31 26.93322 -79.55485 23141 ft 412 kts 206°
2026-05-05 14:32 26.90604 -79.56474 22884 ft 410 kts 205°
2026-05-05 14:32 26.87898 -79.57460 22627 ft 408 kts 205°
2026-05-05 14:32 26.85199 -79.58434 22371 ft 406 kts 205°
2026-05-05 14:32 26.82518 -79.59399 22114 ft 404 kts 205°
2026-05-05 14:33 26.79850 -79.60359 21863 ft 402 kts 205°
2026-05-05 14:33 26.77193 -79.61316 21580 ft 400 kts 205°
2026-05-05 14:33 26.74557 -79.62264 21313 ft 394 kts 205°
2026-05-05 14:33 26.71964 -79.63195 20881 ft 390 kts 204°
2026-05-05 14:34 26.69393 -79.64121 20423 ft 387 kts 204°
2026-05-05 14:34 26.66839 -79.65040 19989 ft 383 kts 204°
2026-05-05 14:34 26.64316 -79.65947 19558 ft 379 kts 204°
2026-05-05 14:34 26.61812 -79.66849 19090 ft 377 kts 204°
2026-05-05 14:35 26.59322 -79.67733 18605 ft 374 kts 203°
2026-05-05 14:35 26.56845 -79.68595 18119 ft 371 kts 202°
2026-05-05 14:35 26.54392 -79.69448 17627 ft 367 kts 202°
2026-05-05 14:35 26.51967 -79.70294 17141 ft 363 kts 202°
2026-05-05 14:36 26.49567 -79.71132 16673 ft 360 kts 202°
2026-05-05 14:36 26.47207 -79.72008 16249 ft 353 kts 207°
2026-05-05 14:36 26.45134 -79.73390 16037 ft 345 kts 225°
2026-05-05 14:36 26.43440 -79.75264 15995 ft 343 kts 231°
2026-05-05 14:37 26.41831 -79.77226 15988 ft 342 kts 232°
2026-05-05 14:37 26.40241 -79.79175 15528 ft 339 kts 232°
2026-05-05 14:37 26.38676 -79.81139 15028 ft 337 kts 234°
2026-05-05 14:37 26.37286 -79.83225 14754 ft 334 kts 238°
2026-05-05 14:38 26.35971 -79.85322 14604 ft 324 kts 238°
2026-05-05 14:38 26.34710 -79.87344 14442 ft 311 kts 238°
2026-05-05 14:38 26.33493 -79.89294 14231 ft 301 kts 238°
2026-05-05 14:38 26.32315 -79.91182 14005 ft 294 kts 238°
2026-05-05 14:39 26.31157 -79.93044 13746 ft 292 kts 238°
2026-05-05 14:39 26.29995 -79.94901 13509 ft 292 kts 238°
2026-05-05 14:39 26.28834 -79.96754 13335 ft 291 kts 238°
2026-05-05 14:39 26.27675 -79.98604 13128 ft 291 kts 238°
2026-05-05 14:40 26.26495 -80.00433 12947 ft 291 kts 234°
2026-05-05 14:40 26.24987 -80.01948 12750 ft 297 kts 214°
2026-05-05 14:40 26.23044 -80.02771 12554 ft 302 kts 198°
2026-05-05 14:40 26.20985 -80.03259 12334 ft 303 kts 195°
2026-05-05 14:41 26.18921 -80.03705 12151 ft 302 kts 195°
2026-05-05 14:41 26.16866 -80.04156 11953 ft 301 kts 195°
2026-05-05 14:41 26.14819 -80.04612 11752 ft 299 kts 195°
2026-05-05 14:41 26.12783 -80.05070 11545 ft 298 kts 195°
2026-05-05 14:42 26.10754 -80.05530 11355 ft 297 kts 196°
2026-05-05 14:42 26.08734 -80.05988 11152 ft 296 kts 195°
2026-05-05 14:42 26.06723 -80.06447 11015 ft 295 kts 195°
2026-05-05 14:42 26.04720 -80.06942 10851 ft 294 kts 197°
2026-05-05 14:43 26.02737 -80.07466 10485 ft 291 kts 197°
2026-05-05 14:43 26.00767 -80.07987 10221 ft 291 kts 197°
2026-05-05 14:43 25.98804 -80.08503 9969 ft 290 kts 197°
2026-05-05 14:43 25.96847 -80.09015 9699 ft 289 kts 197°
2026-05-05 14:44 25.94891 -80.09525 9466 ft 288 kts 197°
2026-05-05 14:44 25.92978 -80.10143 9225 ft 285 kts 206°
2026-05-05 14:44 25.91353 -80.11332 8946 ft 277 kts 226°
2026-05-05 14:44 25.90031 -80.12874 8721 ft 276 kts 230°
2026-05-05 14:45 25.88798 -80.14499 8494 ft 274 kts 236°
2026-05-05 14:45 25.88003 -80.16393 8271 ft 271 kts 258°
2026-05-05 14:45 25.87816 -80.18435 8103 ft 260 kts 269°
2026-05-05 14:45 25.87785 -80.20403 7948 ft 249 kts 269°
2026-05-05 14:46 25.87745 -80.22285 7812 ft 238 kts 268°
2026-05-05 14:46 25.87695 -80.24088 7653 ft 229 kts 268°
2026-05-05 14:46 25.87642 -80.25844 7373 ft 227 kts 268°
2026-05-05 14:46 25.87596 -80.27590 7058 ft 226 kts 270°
2026-05-05 14:47 25.87797 -80.29312 6733 ft 226 kts 287°
2026-05-05 14:47 25.88426 -80.30907 6428 ft 225 kts 296°
2026-05-05 14:47 25.89160 -80.32414 6111 ft 225 kts 297°
2026-05-05 14:47 25.89914 -80.33932 5765 ft 224 kts 297°
2026-05-05 14:48 25.90672 -80.35468 5424 ft 223 kts 297°
2026-05-05 14:48 25.91417 -80.36986 5048 ft 225 kts 297°
2026-05-05 14:48 25.92154 -80.38493 4744 ft 225 kts 297°
2026-05-05 14:48 25.92895 -80.40015 4462 ft 222 kts 298°
2026-05-05 14:49 25.93537 -80.41566 4147 ft 221 kts 288°
2026-05-05 14:49 25.93762 -80.43253 3806 ft 222 kts 272°
2026-05-05 14:49 25.93753 -80.44971 3468 ft 223 kts 270°
2026-05-05 14:49 25.93668 -80.46695 3114 ft 224 kts 261°
2026-05-05 14:50 25.93286 -80.47780 3022 ft 225 kts 238°
2026-05-05 14:50 25.92100 -80.48890 2986 ft 227 kts 200°
2026-05-05 14:50 25.90559 -80.48928 2988 ft 225 kts 159°
2026-05-05 14:50 25.89263 -80.47979 2988 ft 225 kts 136°
2026-05-05 14:51 25.88274 -80.46635 2986 ft 225 kts 118°
2026-05-05 14:51 25.87565 -80.45141 2979 ft 212 kts 117°
2026-05-05 14:51 25.86840 -80.43764 2778 ft 204 kts 120°
2026-05-05 14:51 25.86132 -80.42413 2455 ft 202 kts 118°
2026-05-05 14:52 25.85446 -80.41056 2166 ft 201 kts 116°
2026-05-05 14:52 25.84776 -80.39742 1931 ft 188 kts 117°
2026-05-05 14:52 25.84154 -80.38528 1679 ft 180 kts 117°
2026-05-05 14:52 25.83549 -80.37339 1431 ft 176 kts 116°
2026-05-05 14:53 25.82950 -80.36158 1223 ft 175 kts 116°
2026-05-05 14:53 25.82371 -80.35019 986 ft 163 kts 116°
2026-05-05 14:53 25.81836 -80.33984 774 ft 147 kts 118°
2026-05-05 14:53 25.81357 -80.33027 552 ft 137 kts 117°
2026-05-05 14:54 25.80895 -80.32119 335 ft 134 kts 117°
2026-05-05 14:54 25.80444 -80.31225 211 ft 132 kts 118°
2026-05-05 14:54 25.79988 -80.30337 63 ft 133 kts 118°
2026-05-05 14:54 25.79549 -80.29478 26 ft 118 kts 120°
2026-05-05 14:55 25.79204 -80.28810 26 ft 66 kts 120°
2026-05-05 14:55 25.79101 -80.28528 29 ft 17 kts 87°
2026-05-05 14:55 25.79134 -80.28437 27 ft 13 kts 55°
2026-05-05 14:55 25.79208 -80.28387 29 ft 13 kts 21°
2026-05-05 14:56 25.79287 -80.28322 29 ft 16 kts 42°
2026-05-05 14:56 25.79387 -80.28258 28 ft 18 kts
2026-05-05 14:56 25.79446 -80.28314 32 ft 10 kts 288°
2026-05-05 14:56 25.79450 -80.28327 35 ft 0 kts 288°